TimeCST,TemperatureF,Dew PointF,Humidity,Sea Level PressureIn,VisibilityMPH,Wind Direction,Wind SpeedMPH,Gust SpeedMPH,PrecipitationIn,Events,Conditions,WindDirDegrees,DateUTC
12:55 AM,41.0,35.1,79,30.17,10.0,WNW,9.2,17.3,N/A,,Overcast,290,2013-01-17 06:55:00
1:38 AM,41.0,33.8,76,30.18,10.0,WNW,10.4,17.3,N/A,,Overcast,290,2013-01-17 07:38:00
1:55 AM,41.0,34.0,76,30.19,10.0,WNW,10.4,19.6,N/A,,Overcast,290,2013-01-17 07:55:00
2:28 AM,41.0,33.8,76,30.19,10.0,NW,11.5,19.6,N/A,,Overcast,310,2013-01-17 08:28:00
2:55 AM,41.0,34.0,76,30.19,10.0,Variable,5.8,-,N/A,,Overcast,0,2013-01-17 08:55:00
3:02 AM,41.0,33.8,76,30.19,10.0,Variable,4.6,-,N/A,,Overcast,0,2013-01-17 09:02:00
3:55 AM,41.0,33.1,73,30.20,10.0,WNW,6.9,-,N/A,,Scattered Clouds,300,2013-01-17 09:55:00
4:55 AM,41.0,33.1,73,30.22,10.0,Variable,5.8,17.3,N/A,,Overcast,0,2013-01-17 10:55:00
5:55 AM,39.9,32.0,73,30.24,10.0,Variable,5.8,18.4,N/A,,Mostly Cloudy,0,2013-01-17 11:55:00
6:08 AM,39.2,32.0,75,30.25,10.0,NW,9.2,21.9,N/A,,Scattered Clouds,310,2013-01-17 12:08:00
6:55 AM,39.0,32.0,76,30.27,10.0,WNW,4.6,-,N/A,,Mostly Cloudy,290,2013-01-17 12:55:00
7:55 AM,41.0,32.0,70,30.30,10.0,NNW,6.9,17.3,N/A,,Mostly Cloudy,330,2013-01-17 13:55:00
8:21 AM,42.8,32.0,66,30.30,10.0,NW,10.4,20.7,N/A,,Scattered Clouds,320,2013-01-17 14:21:00
8:55 AM,44.1,32.0,63,30.30,10.0,NNW,9.2,16.1,N/A,,Scattered Clouds,330,2013-01-17 14:55:00
9:55 AM,46.9,32.0,56,30.32,10.0,WNW,10.4,-,N/A,,Partly Cloudy,300,2013-01-17 15:55:00
10:55 AM,48.9,30.9,50,30.32,10.0,WNW,11.5,20.7,N/A,,Partly Cloudy,300,2013-01-17 16:55:00
11:55 AM,51.1,30.0,44,30.30,10.0,NW,8.1,19.6,N/A,,Partly Cloudy,320,2013-01-17 17:55:00
12:55 PM,51.1,30.0,44,30.26,10.0,NW,13.8,20.7,N/A,,Partly Cloudy,320,2013-01-17 18:55:00
1:55 PM,51.1,28.9,43,30.26,10.0,NNW,12.7,23.0,N/A,,Clear,330,2013-01-17 19:55:00
2:55 PM,53.1,28.9,40,30.27,10.0,NW,8.1,20.7,N/A,,Clear,310,2013-01-17 20:55:00
3:55 PM,53.1,30.9,43,30.28,10.0,NNW,9.2,-,N/A,,Partly Cloudy,340,2013-01-17 21:55:00
4:55 PM,53.1,32.0,45,30.31,10.0,North,9.2,-,N/A,,Scattered Clouds,350,2013-01-17 22:55:00
5:55 PM,51.1,33.1,50,30.34,10.0,North,4.6,-,N/A,,Partly Cloudy,350,2013-01-17 23:55:00
6:55 PM,50.0,34.0,54,30.38,10.0,North,5.8,-,N/A,,Clear,10,2013-01-18 00:55:00
7:55 PM,48.9,33.1,54,30.40,10.0,North,5.8,-,N/A,,Clear,360,2013-01-18 01:55:00
8:55 PM,50.0,32.0,50,30.41,10.0,North,8.1,-,N/A,,Clear,10,2013-01-18 02:55:00
9:55 PM,48.9,33.1,54,30.43,10.0,North,6.9,-,N/A,,Clear,360,2013-01-18 03:55:00
10:55 PM,48.0,33.1,56,30.43,10.0,North,6.9,-,N/A,,Clear,10,2013-01-18 04:55:00
11:55 PM,46.9,34.0,61,30.43,10.0,North,5.8,-,N/A,,Clear,360,2013-01-18 05:55:00